• In Uzbekistan
  • List of Countries
  • For 7 days
  • Water Temperature
  • Satellite Maps
  • Weather Map
  • Weather Widgets
  • user-avatar
    Login

    Hourly Weather Cajamar

    Today, 17 October, Tuesday

    Time Temperature Precipitation Wind Pressure Humidity
    00:00 +18°C° 0 mm 4 mps 700 mmHg 85%
    01:00 +18°C° 0 mm 4 mps 700 mmHg 85%
    02:00 +18°C° 0 mm 4 mps 700 mmHg 85%
    03:00 +18°C° 0 mm 4 mps 699 mmHg 85%
    04:00 +18°C° 0 mm 3 mps 700 mmHg 85%
    05:00 +18°C° 0 mm 3 mps 700 mmHg 86%
    06:00 +18°C° 0 mm 3 mps 700 mmHg 86%
    07:00 +20°C° 0 mm 3 mps 700 mmHg 78%
    08:00 +22°C° 0 mm 3 mps 701 mmHg 70%
    09:00 +25°C° 0 mm 3 mps 701 mmHg 60%
    10:00 +26°C° 0 mm 3 mps 701 mmHg 55%
    11:00 +28°C° 0 mm 2 mps 701 mmHg 50%
    12:00 +30°C° 0 mm 2 mps 701 mmHg 44%
    13:00 +30°C° 0 mm 2 mps 701 mmHg 43%
    14:00 +30°C° 0 mm 2 mps 700 mmHg 42%
    15:00 +31°C° 0 mm 2 mps 700 mmHg 41%
    16:00 +29°C° 0 mm 2 mps 700 mmHg 48%
    17:00 +28°C° 0 mm 2 mps 699 mmHg 54%
    18:00 +26°C° 0 mm 2 mps 699 mmHg 60%
    19:00 +25°C° 0 mm 2 mps 699 mmHg 66%
    20:00 +24°C° 0 mm 2 mps 699 mmHg 72%
    21:00 +23°C° 0 mm 2 mps 699 mmHg 77%
    22:00 +21°C° 0 mm 2 mps 699 mmHg 78%
    23:00 +21°C° 0 mm 2 mps 699 mmHg 78%

    Tomorrow, 18 October, Wednesday

    Time Temperature Precipitation Wind Pressure Humidity
    00:00 +20°C° 0 mm 2 mps 699 mmHg 79%
    01:00 +20°C° 0 mm 2 mps 699 mmHg 78%
    02:00 +20°C° 0 mm 2 mps 698 mmHg 77%
    03:00 +20°C° 0 mm 2 mps 698 mmHg 76%
    04:00 +20°C° 0 mm 2 mps 698 mmHg 76%
    05:00 +19°C° 0 mm 2 mps 698 mmHg 77%
    06:00 +19°C° 0 mm 2 mps 698 mmHg 77%
    07:00 +23°C° 0 mm 2 mps 699 mmHg 69%
    08:00 +25°C° 0 mm 3 mps 700 mmHg 60%
    09:00 +27°C° 0 mm 3 mps 700 mmHg 52%
    10:00 +29°C° 0 mm 3 mps 700 mmHg 46%
    11:00 +30°C° 0 mm 3 mps 700 mmHg 40%
    12:00 +33°C° 0 mm 3 mps 699 mmHg 35%
    13:00 +33°C° 0 mm 3 mps 699 mmHg 34%
    14:00 +34°C° 0 mm 3 mps 698 mmHg 33%
    15:00 +34°C° 0 mm 3 mps 698 mmHg 31%
    16:00 +31°C° 0 mm 2 mps 697 mmHg 36%
    17:00 +30°C° 0 mm 2 mps 697 mmHg 41%
    18:00 +28°C° 0 mm 2 mps 697 mmHg 46%
    19:00 +27°C° 0 mm 2 mps 697 mmHg 49%
    20:00 +26°C° 0 mm 2 mps 697 mmHg 52%
    21:00 +25°C° 0 mm 2 mps 697 mmHg 55%
    22:00 +25°C° 0 mm 2 mps 697 mmHg 54%
    23:00 +24°C° 0 mm 2 mps 697 mmHg 54%

    Day after tomorrow, 19 October, Thursday

    Time Temperature Precipitation Wind Pressure Humidity
    00:00 +24°C° 0 mm 3 mps 697 mmHg 53%
    01:00 +24°C° 0 mm 3 mps 696 mmHg 53%
    02:00 +22°C° 0 mm 3 mps 695 mmHg 52%
    03:00 +22°C° 0 mm 4 mps 695 mmHg 51%
    04:00 +21°C° 0 mm 4 mps 695 mmHg 52%
    05:00 +21°C° 0 mm 3 mps 695 mmHg 53%
    06:00 +21°C° 0 mm 3 mps 695 mmHg 54%
    07:00 +23°C° 0 mm 4 mps 696 mmHg 49%
    08:00 +26°C° 0 mm 4 mps 697 mmHg 44%
    09:00 +28°C° 0 mm 5 mps 697 mmHg 39%
    10:00 +30°C° 0 mm 4 mps 698 mmHg 36%
    11:00 +33°C° 0 mm 4 mps 698 mmHg 32%
    12:00 +34°C° 0 mm 4 mps 698 mmHg 29%
    13:00 +35°C° 0 mm 4 mps 697 mmHg 28%
    14:00 +35°C° 0 mm 3 mps 696 mmHg 27%
    15:00 +35°C° 0 mm 3 mps 695 mmHg 26%
    16:00 +34°C° 0 mm 2 mps 695 mmHg 30%
    17:00 +31°C° 0 mm 2 mps 695 mmHg 34%
    18:00 +30°C° 0 mm 1 mps 694 mmHg 37%
    19:00 +29°C° 0 mm 1 mps 695 mmHg 39%
    20:00 +28°C° 0 mm 1 mps 695 mmHg 40%
    21:00 +27°C° 0 mm 2 mps 696 mmHg 42%
    22:00 +26°C° 0 mm 2 mps 696 mmHg 46%
    23:00 +26°C° 0 mm 2 mps 696 mmHg 51%

    20 October, Friday

    Time Temperature Precipitation Wind Pressure Humidity
    00:00 +25°C° 0 mm 2 mps 696 mmHg 55%
    01:00 +25°C° 0 mm 2 mps 695 mmHg 58%
    02:00 +24°C° 0 mm 1 mps 695 mmHg 61%
    03:00 +23°C° 0 mm 1 mps 694 mmHg 63%
    04:00 +23°C° 0 mm 1 mps 695 mmHg 64%
    05:00 +23°C° 0 mm 2 mps 695 mmHg 66%
    06:00 +23°C° 0 mm 2 mps 696 mmHg 67%
    07:00 +24°C° 0 mm 2 mps 696 mmHg 64%
    08:00 +25°C° 0 mm 3 mps 697 mmHg 60%
    09:00 +27°C° 0 mm 3 mps 698 mmHg 56%
    10:00 +28°C° 0 mm 3 mps 698 mmHg 51%
    11:00 +30°C° 0 mm 2 mps 698 mmHg 46%
    12:00 +31°C° 0 mm 2 mps 698 mmHg 40%
    13:00 +30°C° 0 mm 2 mps 697 mmHg 44%
    14:00 +30°C° 0 mm 3 mps 696 mmHg 47%
    15:00 +29°C° 0 mm 3 mps 696 mmHg 50%
    16:00 +28°C° 0 mm 3 mps 696 mmHg 56%
    17:00 +26°C° 0 mm 3 mps 696 mmHg 62%
    18:00 +25°C° 0 mm 3 mps 696 mmHg 68%
    19:00 +24°C° 0 mm 3 mps 696 mmHg 70%
    20:00 +24°C° 0 mm 3 mps 696 mmHg 73%
    21:00 +22°C° 0 mm 3 mps 697 mmHg 75%
    22:00 +22°C° 0 mm 3 mps 696 mmHg 75%
    23:00 +22°C° 0 mm 3 mps 696 mmHg 75%

    21 October, Saturday

    Time Temperature Precipitation Wind Pressure Humidity
    00:00 +22°C° 0 mm 3 mps 695 mmHg 75%
    01:00 +22°C° 0 mm 3 mps 695 mmHg 74%
    02:00 +22°C° 0 mm 3 mps 695 mmHg 72%
    03:00 +22°C° 0 mm 3 mps 694 mmHg 70%
    04:00 +22°C° 0 mm 3 mps 694 mmHg 67%
    05:00 +22°C° 0 mm 3 mps 694 mmHg 63%
    06:00 +23°C° 0 mm 2 mps 695 mmHg 60%
    07:00 +25°C° 0 mm 4 mps 695 mmHg 52%
    08:00 +27°C° 0 mm 5 mps 696 mmHg 44%
    09:00 +30°C° 0 mm 6 mps 696 mmHg 37%
    10:00 +32°C° 0 mm 6 mps 696 mmHg 34%
    11:00 +33°C° 0 mm 6 mps 696 mmHg 31%
    12:00 +34°C° 0 mm 6 mps 696 mmHg 29%
    13:00 +34°C° 0 mm 6 mps 695 mmHg 29%
    14:00 +34°C° 0 mm 5 mps 695 mmHg 30%
    15:00 +34°C° 0 mm 4 mps 694 mmHg 31%
    16:00 +33°C° 0 mm 4 mps 695 mmHg 35%
    17:00 +30°C° 0 mm 4 mps 695 mmHg 39%
    18:00 +29°C° 0 mm 3 mps 695 mmHg 43%
    19:00 +27°C° 0.9 mm 3 mps 695 mmHg 54%
    20:00 +25°C° 0.9 mm 3 mps 696 mmHg 65%
    21:00 +22°C° 0.9 mm 3 mps 696 mmHg 77%
    22:00 +22°C° 0.5 mm 3 mps 695 mmHg 77%
    23:00 +22°C° 0.5 mm 3 mps 695 mmHg 77%

    22 October, Sunday

    Time Temperature Precipitation Wind Pressure Humidity
    00:00 +22°C° 0.5 mm 3 mps 694 mmHg 78%
    01:00 +23°C° 0 mm 2 mps 694 mmHg 78%
    02:00 +21°C° 0 mm 2 mps 694 mmHg 77%
    03:00 +22°C° 0 mm 1 mps 693 mmHg 77%
    04:00 +23°C° 0.1 mm 2 mps 694 mmHg 76%
    05:00 +23°C° 0.1 mm 2 mps 694 mmHg 75%
    06:00 +23°C° 0.1 mm 2 mps 694 mmHg 75%
    07:00 +24°C° 0 mm 2 mps 695 mmHg 70%
    08:00 +25°C° 0 mm 2 mps 695 mmHg 65%
    09:00 +26°C° 0 mm 3 mps 696 mmHg 61%
    10:00 +27°C° 0.1 mm 4 mps 696 mmHg 58%
    11:00 +28°C° 0.1 mm 4 mps 696 mmHg 55%
    12:00 +29°C° 0.1 mm 5 mps 696 mmHg 51%
    13:00 +29°C° 0.2 mm 4 mps 695 mmHg 50%
    14:00 +29°C° 0.2 mm 4 mps 695 mmHg 49%
    15:00 +29°C° 0.2 mm 4 mps 695 mmHg 48%
    16:00 +28°C° 1.6 mm 3 mps 695 mmHg 57%
    17:00 +26°C° 1.6 mm 3 mps 695 mmHg 67%
    18:00 +24°C° 1.6 mm 2 mps 694 mmHg 76%
    19:00 +24°C° 0.2 mm 2 mps 695 mmHg 77%
    20:00 +24°C° 0.2 mm 2 mps 695 mmHg 77%
    21:00 +23°C° 0.2 mm 2 mps 695 mmHg 78%
    22:00 +23°C° 0 mm 2 mps 695 mmHg 79%
    23:00 +23°C° 0 mm 2 mps 694 mmHg 80%
    Show more